ITT1033 LIQB-LIKO

Flight info

Callsign ITT1033
Flight time N/A
Altitude 8000
Route GAVRA
Aircraft C172/L-SFG/C

Departure

Time 2026-04-27 13:27
Airport Arezzo Molin Blanco Airfield (LIQB)

Arrival

Time N/A
Airport Guglielmo Zamboni Airfield (LIKO)
Time Latitude Longitude Altitude Speed Heading
2026-04-27 13:21 43.45863 11.84621 823 ft 0 kts 31°
2026-04-27 13:23 43.45864 11.84621 823 ft 2 kts 30°
2026-04-27 13:23 43.45879 11.84585 825 ft 6 kts 229°
2026-04-27 13:23 43.45845 11.84557 825 ft 5 kts 212°
2026-04-27 13:23 43.45817 11.84529 825 ft 4 kts 214°
2026-04-27 13:24 43.45778 11.84498 825 ft 9 kts 213°
2026-04-27 13:24 43.45710 11.84452 827 ft 13 kts 209°
2026-04-27 13:24 43.45634 11.84481 828 ft 13 kts 126°
2026-04-27 13:24 43.45573 11.84601 826 ft 19 kts 127°
2026-04-27 13:25 43.45493 11.84782 828 ft 24 kts 118°
2026-04-27 13:25 43.45419 11.84980 827 ft 22 kts 122°
2026-04-27 13:25 43.45372 11.85106 830 ft 12 kts 227°
2026-04-27 13:25 43.45391 11.85051 829 ft 0 kts 297°
2026-04-27 13:26 43.45422 11.84976 827 ft 30 kts 300°
2026-04-27 13:26 43.45598 11.84544 836 ft 67 kts 297°
2026-04-27 13:26 43.45846 11.83993 994 ft 70 kts 315°
2026-04-27 13:27 43.46328 11.83771 1086 ft 84 kts 10°
2026-04-27 13:27 43.46933 11.83946 1140 ft 90 kts 13°
2026-04-27 13:27 43.47552 11.84120 1306 ft 95 kts
2026-04-27 13:27 43.48232 11.84245 1425 ft 100 kts 10°
2026-04-27 13:28 43.48902 11.84521 1598 ft 105 kts 17°
2026-04-27 13:28 43.49629 11.84722 1738 ft 110 kts
2026-04-27 13:28 43.50389 11.84768 1931 ft 107 kts 356°
2026-04-27 13:28 43.51128 11.84594 2097 ft 104 kts 348°
2026-04-27 13:29 43.51829 11.84441 2258 ft 105 kts 343°
2026-04-27 13:29 43.52513 11.84270 2435 ft 95 kts 343°
2026-04-27 13:29 43.53170 11.84037 2635 ft 98 kts 338°
2026-04-27 13:29 43.53846 11.83888 2862 ft 102 kts 354°
2026-04-27 13:30 43.54550 11.83847 2968 ft 101 kts 351°
2026-04-27 13:30 43.55252 11.83798 3063 ft 101 kts 349°
2026-04-27 13:30 43.55984 11.83723 3041 ft 114 kts 352°
2026-04-27 13:30 43.56756 11.83633 3058 ft 113 kts 350°
2026-04-27 13:31 43.57561 11.83552 3068 ft 120 kts 351°
2026-04-27 13:31 43.58409 11.83482 3071 ft 124 kts 355°
2026-04-27 13:31 43.59266 11.83625 3014 ft 120 kts
2026-04-27 13:31 43.60074 11.83626 3011 ft 118 kts 349°
2026-04-27 13:32 43.60886 11.83531 2999 ft 113 kts 352°
2026-04-27 13:32 43.61645 11.83459 2997 ft 109 kts 352°
2026-04-27 13:32 43.62425 11.83398 3020 ft 116 kts 354°
2026-04-27 13:32 43.63227 11.83344 3023 ft 117 kts 356°
2026-04-27 13:33 43.64025 11.83297 3026 ft 114 kts 355°
2026-04-27 13:33 43.64842 11.83233 3019 ft 120 kts 353°
2026-04-27 13:33 43.65668 11.83202 3011 ft 113 kts 354°
2026-04-27 13:33 43.66443 11.83154 3010 ft 111 kts 356°
2026-04-27 13:34 43.67217 11.83105 3015 ft 113 kts 354°
2026-04-27 13:34 43.68033 11.83056 3026 ft 123 kts 353°
2026-04-27 13:34 43.68885 11.83005 3007 ft 120 kts 354°
2026-04-27 13:34 43.69719 11.82944 3029 ft 122 kts 354°
2026-04-27 13:35 43.70576 11.82915 3006 ft 122 kts 355°
2026-04-27 13:35 43.71408 11.82858 3009 ft 120 kts 352°
2026-04-27 13:35 43.72217 11.82805 3013 ft 114 kts 355°
2026-04-27 13:35 43.73010 11.82767 3028 ft 114 kts 350°
2026-04-27 13:36 43.73811 11.82710 3018 ft 116 kts 352°
2026-04-27 13:36 43.74618 11.82663 3015 ft 113 kts 354°
2026-04-27 13:36 43.75402 11.82615 3020 ft 112 kts 356°
2026-04-27 13:36 43.76157 11.82570 3045 ft 104 kts 354°
2026-04-27 13:37 43.76861 11.82527 3143 ft 99 kts 353°
2026-04-27 13:37 43.77535 11.82490 3049 ft 96 kts 352°
2026-04-27 13:37 43.78158 11.82396 3060 ft 90 kts 351°
2026-04-27 13:37 43.78750 11.82329 3201 ft 81 kts 346°
2026-04-27 13:38 43.79284 11.82197 3319 ft 75 kts 349°
2026-04-27 13:38 43.79810 11.82114 3499 ft 74 kts 341°
2026-04-27 13:38 43.80297 11.81864 3551 ft 84 kts 332°
2026-04-27 13:38 43.80765 11.81393 3720 ft 78 kts 320°
2026-04-27 13:39 43.81161 11.80924 3841 ft 75 kts 313°
2026-04-27 13:39 43.81580 11.80562 3837 ft 80 kts
2026-04-27 13:39 43.82105 11.80643 3941 ft 71 kts 356°
2026-04-27 13:39 43.82146 11.80668 3921 ft 0 kts 273°